Weather in Bemidji

United States     47°28′43″N   94°51′50″W
temp.,
°C
wind,
m/s
gust,
m/s
humid.,
%
clouds,
%
prec.,
mm/h
press.,
hPa
HPBL,
m
18 may, tue
tue1801:00+13sse312820 0.0 1019262
04:00+12s311890 0.0 1019236
07:00+13sse311870 0.0 1019369
10:00+20sse586326 0.0 10171224
13:00+22s5856100 0.1 10161929
16:00+21s596291 0.2 10141530
19:00+21sse58675 0.7 10131171
22:00+16sse512906 0.1 1014683
19 may, wed
wed1901:00+14sse31198100 0.1 1013458
04:00+15sse4994100 0.0 1012554
07:00+15s389481 0.1 1013484
10:00+19ssw577558 0.0 1013881
13:00+22ssw566579 0.1 10121092
16:00+21ssw4666100 0.1 10121010
19:00+20s3773100 0.1 1012272
22:00+17sse41086100 0.0 1013324
20 may, thu
thu2001:00+16sse31095100 1.0 1013403
04:00+15se3999100 0.9 1011374
07:00+15ne2799100 9.4 1010357
10:00+16nnw2799100 9.3 1010429
13:00+15nw2599100 11.5 1012251
16:00+17nnw4689100 0.1 1014673
19:00+15n3595100 0.2 1015325
22:00+13n3698100 0.0 1017218
21 may, fri
fri2101:00+13nne1398100 0.2 1018117
04:00+13ese2399100 0.9 1018102
07:00+14ese1299100 1.7 101869
10:00+15e2297100 0.0 1020235
13:00+22sse237050 0.1 10191020
16:00+22sse446798 0.1 1018971
19:00+21se3677100 0.1 1018308
22:00+18ese3790100 0.1 1020167
22 may, sat
sat2201:00+17ese3994100 0.1 1019262
04:00+16se41396100 0.7 1020409
07:00+15sse41398100 1.6 1018412
10:00+17s31098100 2.8 1017500
13:00+21ssw3795100 3.3 1016637
16:00+17n3798100 0.8 1017216
19:00+17nw2797100 2.6 1017293
22:00+14nnw3699100 1.8 1018272